BCS41E EBBR-LEMD

Flight info

Callsign BCS41E
Flight time N/A
Altitude 33000
Route CIV N872 LESDO DCT KOVIN DCT DUCRA UM728 RESMI UN857 DISAK DCT ARKIP DCT ARNAV DCT LMG DCT UVELI DCT OSMOB DCT ARVID DCT PPN DCT NOLSA DCT ALEPO DCT VASUM DCT BANEV
Aircraft A306/H-SDE3FGHIRWY/LB1

Departure

Time 2026-05-08 02:37
Airport Brussels Airport (EBBR)

Arrival

Time N/A
Airport Adolfo Suárez Madrid–Barajas Airport (LEMD)
Time Latitude Longitude Altitude Speed Heading
2026-05-08 02:25 50.90373 4.46070 141 ft 0 kts 335°
2026-05-08 02:25 50.90369 4.46073 141 ft 3 kts 335°
2026-05-08 02:25 50.90344 4.46090 141 ft 4 kts 335°
2026-05-08 02:26 50.90320 4.46108 141 ft 3 kts 335°
2026-05-08 02:26 50.90299 4.46121 141 ft 4 kts
2026-05-08 02:26 50.90280 4.46111 141 ft 4 kts 57°
2026-05-08 02:26 50.90269 4.46080 142 ft 1 kts 65°
2026-05-08 02:27 50.90268 4.46074 142 ft 0 kts 65°
2026-05-08 02:30 50.90281 4.46123 141 ft 10 kts 66°
2026-05-08 02:30 50.90323 4.46266 140 ft 18 kts 63°
2026-05-08 02:30 50.90360 4.46497 137 ft 25 kts 98°
2026-05-08 02:30 50.90281 4.46765 126 ft 27 kts 116°
2026-05-08 02:31 50.90201 4.47024 131 ft 26 kts 117°
2026-05-08 02:31 50.90207 4.47283 126 ft 24 kts 65°
2026-05-08 02:31 50.90276 4.47521 125 ft 24 kts 66°
2026-05-08 02:31 50.90342 4.47748 124 ft 22 kts 66°
2026-05-08 02:32 50.90402 4.47961 124 ft 20 kts 66°
2026-05-08 02:32 50.90455 4.48157 124 ft 18 kts 64°
2026-05-08 02:32 50.90509 4.48330 124 ft 17 kts 65°
2026-05-08 02:32 50.90555 4.48493 124 ft 15 kts 65°
2026-05-08 02:33 50.90597 4.48640 122 ft 14 kts 65°
2026-05-08 02:33 50.90637 4.48780 122 ft 16 kts 66°
2026-05-08 02:33 50.90687 4.48966 123 ft 21 kts 67°
2026-05-08 02:33 50.90747 4.49160 123 ft 18 kts 64°
2026-05-08 02:34 50.90798 4.49330 124 ft 16 kts 65°
2026-05-08 02:34 50.90840 4.49479 127 ft 14 kts 67°
2026-05-08 02:34 50.90878 4.49617 127 ft 16 kts 63°
2026-05-08 02:34 50.90928 4.49775 127 ft 15 kts 58°
2026-05-08 02:35 50.91002 4.49893 123 ft 16 kts 37°
2026-05-08 02:35 50.91102 4.49940 122 ft 14 kts 354°
2026-05-08 02:35 50.91128 4.49847 123 ft 10 kts 244°
2026-05-08 02:35 50.91122 4.49828 121 ft 0 kts 244°
2026-05-08 02:36 50.91121 4.49825 121 ft 5 kts 244°
2026-05-08 02:36 50.91037 4.49536 124 ft 60 kts 246°
2026-05-08 02:36 50.90777 4.48632 123 ft 118 kts 244°
2026-05-08 02:36 50.90365 4.47206 129 ft 166 kts 245°
2026-05-08 02:37 50.89865 4.45427 514 ft 181 kts 247°
2026-05-08 02:37 50.89407 4.43607 1392 ft 172 kts 248°
2026-05-08 02:37 50.89010 4.41888 2265 ft 159 kts 250°
2026-05-08 02:37 50.88713 4.40245 2875 ft 159 kts 256°
2026-05-08 02:38 50.88540 4.38418 3203 ft 179 kts 265°
2026-05-08 02:38 50.88377 4.36364 3666 ft 191 kts 257°
2026-05-08 02:38 50.88093 4.34405 4690 ft 179 kts 255°
2026-05-08 02:38 50.87708 4.32431 5143 ft 201 kts 240°
2026-05-08 02:39 50.86820 4.30538 5498 ft 227 kts 227°
2026-05-08 02:39 50.85631 4.28704 5845 ft 250 kts 221°
2026-05-08 02:39 50.84289 4.26830 6323 ft 263 kts 221°
2026-05-08 02:39 50.82904 4.24869 6920 ft 270 kts 222°
2026-05-08 02:40 50.81517 4.22806 7683 ft 275 kts 224°
2026-05-08 02:40 50.80610 4.21400 8282 ft 275 kts 225°
2026-05-08 02:40 50.78817 4.18517 9457 ft 279 kts 226°
2026-05-08 02:40 50.77467 4.16294 10241 ft 284 kts 226°
2026-05-08 02:41 50.76065 4.13965 10612 ft 302 kts 226°
2026-05-08 02:41 50.75069 4.12309 10810 ft 314 kts 226°
2026-05-08 02:41 50.73537 4.09766 11107 ft 331 kts 226°
2026-05-08 02:41 50.71910 4.07073 11399 ft 347 kts 226°
2026-05-08 02:42 50.70195 4.04244 11673 ft 363 kts 226°
2026-05-08 02:42 50.68421 4.01327 12074 ft 373 kts 226°
2026-05-08 02:42 50.66611 3.98356 12641 ft 377 kts 226°
2026-05-08 02:42 50.64788 3.95367 13274 ft 381 kts 226°
2026-05-08 02:43 50.62940 3.92343 13931 ft 383 kts 227°
2026-05-08 02:43 50.61084 3.89310 14488 ft 386 kts 227°
2026-05-08 02:43 50.59207 3.86263 15045 ft 390 kts 225°
2026-05-08 02:43 50.57080 3.83568 15621 ft 394 kts 214°
2026-05-08 02:44 50.54683 3.81435 16192 ft 398 kts 208°
2026-05-08 02:44 50.52184 3.79530 16752 ft 401 kts 206°
2026-05-08 02:44 50.49623 3.77754 17308 ft 404 kts 204°
2026-05-08 02:44 50.47028 3.76032 17851 ft 407 kts 204°
2026-05-08 02:45 50.44395 3.74305 18376 ft 411 kts 204°
2026-05-08 02:45 50.41786 3.72584 18820 ft 413 kts 204°
2026-05-08 02:45 50.39098 3.70794 19280 ft 415 kts 204°
2026-05-08 02:45 50.36468 3.69028 19735 ft 417 kts 204°
2026-05-08 02:46 50.33789 3.67219 20181 ft 419 kts 205°
2026-05-08 02:46 50.31108 3.65406 20623 ft 421 kts 205°
2026-05-08 02:46 50.28500 3.63642 21028 ft 423 kts 205°
2026-05-08 02:46 50.25791 3.61812 21481 ft 425 kts 205°
2026-05-08 02:47 50.23069 3.59976 21900 ft 427 kts 205°
2026-05-08 02:47 50.20328 3.58130 22327 ft 429 kts 204°
2026-05-08 02:47 50.17577 3.56281 22754 ft 431 kts 204°
2026-05-08 02:47 50.14820 3.54430 23160 ft 433 kts 204°
2026-05-08 02:48 50.12038 3.52565 23546 ft 435 kts 204°
2026-05-08 02:48 50.09256 3.50703 23875 ft 437 kts 204°
2026-05-08 02:48 50.06452 3.48828 24190 ft 439 kts 204°
2026-05-08 02:48 50.03678 3.46975 24491 ft 441 kts 204°
2026-05-08 02:49 50.00844 3.45085 24797 ft 442 kts 204°
2026-05-08 02:49 49.98008 3.43196 25095 ft 444 kts 204°
2026-05-08 02:49 49.95162 3.41303 25374 ft 446 kts 204°
2026-05-08 02:49 49.92307 3.39406 25662 ft 447 kts 204°
2026-05-08 02:50 49.89434 3.37499 25936 ft 449 kts 204°
2026-05-08 02:50 49.86559 3.35594 26207 ft 451 kts 204°
2026-05-08 02:50 49.83667 3.33681 26472 ft 452 kts 204°
2026-05-08 02:50 49.80768 3.31764 26728 ft 454 kts 204°
2026-05-08 02:51 49.77857 3.29842 26989 ft 455 kts 204°
2026-05-08 02:51 49.74947 3.27922 27351 ft 454 kts 204°
2026-05-08 02:51 49.72078 3.26032 27701 ft 453 kts 204°
2026-05-08 02:51 49.69181 3.24126 28071 ft 452 kts 204°
2026-05-08 02:52 49.66295 3.22229 28435 ft 451 kts 204°
2026-05-08 02:52 49.63405 3.20332 28806 ft 450 kts 204°
2026-05-08 02:52 49.60527 3.18446 29160 ft 449 kts 204°
2026-05-08 02:52 49.57659 3.16568 29529 ft 448 kts 204°
2026-05-08 02:53 49.54794 3.14695 29890 ft 447 kts 204°
2026-05-08 02:53 49.51934 3.12827 30238 ft 446 kts 204°
2026-05-08 02:53 49.49126 3.10841 30540 ft 444 kts 208°
2026-05-08 02:53 49.46463 3.08431 30852 ft 442 kts 212°
2026-05-08 02:54 49.43872 3.05905 31175 ft 441 kts 213°
2026-05-08 02:54 49.41311 3.03330 31482 ft 439 kts 214°
2026-05-08 02:54 49.38769 3.00737 31799 ft 438 kts 214°
2026-05-08 02:54 49.36237 2.98145 32104 ft 437 kts 214°
2026-05-08 02:55 49.33746 2.95599 32424 ft 435 kts 214°
2026-05-08 02:55 49.28705 2.90477 32941 ft 434 kts 214°
2026-05-08 02:56 49.23662 2.85387 32964 ft 434 kts 214°
2026-05-08 02:56 49.18620 2.80317 32962 ft 434 kts 214°
2026-05-08 02:57 49.13574 2.75256 32963 ft 434 kts 214°
2026-05-08 02:57 49.08518 2.70196 32978 ft 434 kts 214°
2026-05-08 02:58 49.03471 2.65157 32984 ft 433 kts 214°
2026-05-08 02:58 48.98425 2.60132 32982 ft 433 kts 214°
2026-05-08 02:59 48.93378 2.55117 32980 ft 433 kts 214°
2026-05-08 02:59 48.88332 2.50116 32985 ft 433 kts 214°
2026-05-08 03:00 48.83278 2.45119 32972 ft 433 kts 214°
2026-05-08 03:00 48.78225 2.40136 32972 ft 433 kts 213°
2026-05-08 03:01 48.73206 2.35198 32977 ft 433 kts 213°
2026-05-08 03:01 48.68140 2.30226 32970 ft 433 kts 213°
2026-05-08 03:02 48.63079 2.25269 32975 ft 434 kts 213°
2026-05-08 03:02 48.57915 2.20550 32972 ft 434 kts 206°
2026-05-08 03:03 48.52220 2.17659 33019 ft 436 kts 195°
2026-05-08 03:03 48.46251 2.15639 33028 ft 437 kts 193°
2026-05-08 03:04 48.40325 2.13798 33023 ft 438 kts 193°
2026-05-08 03:04 48.34356 2.11926 33022 ft 438 kts 193°
2026-05-08 03:05 48.28329 2.10552 33018 ft 440 kts 184°
2026-05-08 03:05 48.22191 2.11205 33023 ft 443 kts 175°
2026-05-08 03:06 48.16105 2.12452 33025 ft 444 kts 175°
2026-05-08 03:06 48.09973 2.12459 33032 ft 440 kts 187°
2026-05-08 03:07 48.03883 2.11452 33034 ft 440 kts 189°
2026-05-08 03:07 47.97807 2.10247 33043 ft 440 kts 189°
2026-05-08 03:08 47.91720 2.09038 33041 ft 441 kts 189°
2026-05-08 03:08 47.85633 2.07863 33037 ft 441 kts 189°
2026-05-08 03:09 47.79540 2.06704 33038 ft 441 kts 189°
2026-05-08 03:09 47.73444 2.05550 33023 ft 442 kts 189°
2026-05-08 03:10 47.67339 2.04396 33017 ft 442 kts 189°
2026-05-08 03:10 47.61394 2.02414 33021 ft 440 kts 200°
2026-05-08 03:11 47.55649 1.99276 33006 ft 440 kts 202°
2026-05-08 03:11 47.49949 1.95938 33012 ft 441 kts 203°
2026-05-08 03:12 47.44240 1.92591 33007 ft 441 kts 203°
2026-05-08 03:12 47.38517 1.89272 33017 ft 442 kts 203°
2026-05-08 03:13 47.32782 1.85971 33005 ft 442 kts 203°
2026-05-08 03:13 47.27085 1.82703 33003 ft 442 kts 203°
2026-05-08 03:14 47.21345 1.79418 32999 ft 443 kts 203°
2026-05-08 03:14 47.15593 1.76156 32994 ft 443 kts 203°
2026-05-08 03:15 47.09817 1.72906 32998 ft 444 kts 203°
2026-05-08 03:15 47.04038 1.69662 32986 ft 445 kts 203°
2026-05-08 03:16 46.98247 1.66416 32986 ft 446 kts 203°
2026-05-08 03:16 46.92455 1.63175 32986 ft 446 kts 203°
2026-05-08 03:17 46.86647 1.59933 32986 ft 447 kts 203°
2026-05-08 03:17 46.80868 1.56715 32984 ft 447 kts 203°
2026-05-08 03:18 46.75040 1.53477 32985 ft 448 kts 203°
2026-05-08 03:18 46.69210 1.50245 32981 ft 449 kts 203°
2026-05-08 03:19 46.63367 1.47014 32981 ft 449 kts 203°
2026-05-08 03:19 46.57520 1.43788 32974 ft 450 kts 203°
2026-05-08 03:20 46.51654 1.40559 32969 ft 450 kts 203°
2026-05-08 03:20 46.45784 1.37335 32976 ft 451 kts 203°
2026-05-08 03:21 46.39940 1.34133 32974 ft 452 kts 203°
2026-05-08 03:21 46.34058 1.30918 32972 ft 452 kts 203°
2026-05-08 03:22 46.28162 1.27702 32976 ft 453 kts 203°
2026-05-08 03:22 46.22263 1.24492 32974 ft 453 kts 203°
2026-05-08 03:23 46.16355 1.21283 32973 ft 454 kts 203°
2026-05-08 03:23 46.10432 1.18076 32966 ft 454 kts 203°
2026-05-08 03:24 46.04551 1.14898 32966 ft 455 kts 203°
2026-05-08 03:24 45.98613 1.11697 32963 ft 455 kts 204°
2026-05-08 03:25 45.92672 1.08501 32957 ft 456 kts 204°
2026-05-08 03:25 45.86715 1.05303 32959 ft 457 kts 204°
2026-05-08 03:26 45.81038 1.01488 32958 ft 452 kts 216°
2026-05-08 03:26 45.76059 0.96053 32962 ft 449 kts 222°
2026-05-08 03:27 45.71265 0.90302 32967 ft 450 kts 223°
2026-05-08 03:27 45.66482 0.84507 32970 ft 450 kts 223°
2026-05-08 03:28 45.61683 0.78751 32967 ft 451 kts 223°
2026-05-08 03:28 45.56866 0.73019 32967 ft 451 kts 223°
2026-05-08 03:29 45.52036 0.67294 32969 ft 451 kts 223°
2026-05-08 03:29 45.48020 0.62543 32961 ft 451 kts 223°
2026-05-08 03:30 45.40785 0.54005 32959 ft 452 kts 223°
2026-05-08 03:31 45.31082 0.42599 32953 ft 452 kts 224°
2026-05-08 03:32 45.23824 0.34100 32952 ft 452 kts 224°
2026-05-08 03:32 45.18966 0.28428 32947 ft 452 kts 224°
2026-05-08 03:33 45.14101 0.22761 32945 ft 452 kts 224°
2026-05-08 03:33 45.09239 0.17110 32938 ft 453 kts 224°
2026-05-08 03:34 45.04363 0.11455 32938 ft 452 kts 224°
2026-05-08 03:34 44.99515 0.05845 32931 ft 453 kts 224°
2026-05-08 03:35 44.94638 0.00217 32932 ft 453 kts 224°
2026-05-08 03:35 44.89758 -0.05403 32931 ft 453 kts 224°
2026-05-08 03:36 44.84880 -0.11009 32921 ft 452 kts 224°
2026-05-08 03:36 44.79999 -0.16605 32929 ft 452 kts 224°
2026-05-08 03:37 44.75119 -0.22188 32927 ft 452 kts 225°
2026-05-08 03:37 44.70242 -0.27754 32927 ft 452 kts 225°
2026-05-08 03:38 44.65283 -0.33215 32925 ft 456 kts 219°
2026-05-08 03:38 44.59778 -0.37667 32921 ft 460 kts 214°
2026-05-08 03:39 44.54110 -0.41851 32921 ft 461 kts 213°
2026-05-08 03:39 44.48427 -0.45974 32921 ft 460 kts 213°
2026-05-08 03:40 44.42744 -0.50111 32917 ft 459 kts 214°
2026-05-08 03:40 44.37073 -0.54250 32921 ft 459 kts 214°
2026-05-08 03:41 44.31422 -0.58374 32921 ft 458 kts 214°
2026-05-08 03:41 44.25766 -0.62491 32919 ft 458 kts 214°
2026-05-08 03:42 44.20159 -0.66562 32921 ft 457 kts 214°
2026-05-08 03:42 44.14483 -0.70674 32924 ft 457 kts 214°
2026-05-08 03:43 44.08887 -0.74720 32922 ft 456 kts 214°
2026-05-08 03:43 44.03254 -0.78783 32921 ft 455 kts 214°
2026-05-08 03:44 43.97634 -0.82827 32918 ft 454 kts 214°
2026-05-08 03:44 43.92022 -0.86858 32915 ft 453 kts 214°
2026-05-08 03:45 43.86418 -0.90875 32906 ft 453 kts 214°
2026-05-08 03:45 43.80827 -0.94873 32903 ft 452 kts 214°
2026-05-08 03:46 43.75240 -0.98861 32905 ft 451 kts 214°
2026-05-08 03:46 43.69664 -1.02832 32903 ft 450 kts 214°
2026-05-08 03:47 43.64089 -1.06793 32903 ft 449 kts 213°
2026-05-08 03:47 43.58561 -1.10713 32901 ft 449 kts 213°
2026-05-08 03:48 43.53012 -1.14642 32903 ft 448 kts 213°
2026-05-08 03:48 43.47459 -1.18564 32903 ft 447 kts 213°
2026-05-08 03:49 43.41920 -1.22467 32902 ft 447 kts 213°
2026-05-08 03:49 43.36389 -1.26356 32906 ft 446 kts 213°
2026-05-08 03:50 43.30887 -1.30219 32904 ft 446 kts 213°
2026-05-08 03:50 43.25361 -1.34092 32911 ft 445 kts 212°
2026-05-08 03:51 43.19838 -1.37951 32917 ft 445 kts 212°
2026-05-08 03:51 43.14319 -1.41800 32915 ft 444 kts 212°
2026-05-08 03:52 43.08818 -1.45629 32933 ft 443 kts 212°
2026-05-08 03:52 43.03328 -1.49449 32938 ft 443 kts 212°
2026-05-08 03:53 42.97833 -1.53275 32945 ft 442 kts 212°
2026-05-08 03:53 42.92383 -1.57059 32953 ft 442 kts 212°
2026-05-08 03:54 42.86902 -1.60855 32956 ft 441 kts 212°
2026-05-08 03:54 42.81430 -1.64641 32957 ft 440 kts 212°
2026-05-08 03:55 42.75966 -1.68412 32956 ft 440 kts 212°
2026-05-08 03:55 42.70525 -1.72136 32959 ft 440 kts 211°
2026-05-08 03:56 42.65036 -1.75830 32957 ft 440 kts 211°
2026-05-08 03:56 42.59542 -1.79512 32956 ft 440 kts 211°
2026-05-08 03:57 42.54052 -1.83190 32957 ft 440 kts 211°
2026-05-08 03:57 42.48567 -1.86860 32956 ft 439 kts 211°
2026-05-08 03:58 42.43080 -1.90526 32950 ft 439 kts 210°
2026-05-08 03:58 42.37628 -1.94160 32963 ft 439 kts 210°
2026-05-08 03:59 42.32155 -1.97803 32959 ft 438 kts 210°
2026-05-08 03:59 42.26691 -2.01440 32965 ft 437 kts 210°
2026-05-08 04:00 42.21228 -2.05059 32966 ft 437 kts 210°
2026-05-08 04:00 42.15766 -2.08671 32959 ft 436 kts 210°
2026-05-08 04:01 42.10314 -2.12270 32969 ft 436 kts 210°
2026-05-08 04:01 42.04875 -2.15852 32976 ft 435 kts 210°
2026-05-08 04:02 41.99465 -2.19409 32973 ft 435 kts 210°
2026-05-08 04:02 41.94026 -2.22977 32981 ft 435 kts 209°
2026-05-08 04:03 41.88594 -2.26534 32981 ft 434 kts 209°
2026-05-08 04:03 41.80453 -2.31853 32978 ft 433 kts 209°
2026-05-08 04:04 41.75032 -2.35386 32987 ft 433 kts 209°
2026-05-08 04:04 41.69645 -2.38891 32979 ft 432 kts 209°
2026-05-08 04:05 41.64226 -2.42410 32980 ft 432 kts 209°
2026-05-08 04:05 41.58818 -2.45915 32981 ft 432 kts 209°
2026-05-08 04:06 41.53411 -2.49413 32984 ft 431 kts 209°
2026-05-08 04:06 41.48013 -2.52899 32978 ft 431 kts 208°
2026-05-08 04:07 41.42640 -2.56361 32493 ft 421 kts 208°
2026-05-08 04:07 41.40047 -2.58028 31338 ft 418 kts 208°
2026-05-08 04:07 41.37404 -2.59730 29813 ft 424 kts 208°
2026-05-08 04:08 41.34703 -2.61389 28015 ft 432 kts 203°
2026-05-08 04:08 41.31787 -2.62500 26206 ft 441 kts 191°
2026-05-08 04:08 41.28697 -2.62694 24678 ft 447 kts 179°
2026-05-08 04:08 41.25604 -2.62430 24058 ft 442 kts 178°
2026-05-08 04:09 41.22567 -2.62137 23525 ft 434 kts 177°
2026-05-08 04:09 41.19566 -2.61853 22885 ft 428 kts 178°
2026-05-08 04:09 41.16620 -2.61580 22308 ft 421 kts 178°
2026-05-08 04:09 41.13719 -2.61317 21738 ft 414 kts 178°
2026-05-08 04:10 41.10860 -2.61059 21189 ft 408 kts 178°
2026-05-08 04:10 41.08044 -2.60807 20647 ft 403 kts 178°
2026-05-08 04:10 41.05257 -2.60558 20116 ft 399 kts 178°
2026-05-08 04:10 41.02497 -2.60312 19578 ft 396 kts 178°
2026-05-08 04:11 40.99789 -2.60071 19040 ft 393 kts 178°
2026-05-08 04:11 40.97064 -2.59829 18467 ft 392 kts 178°
2026-05-08 04:11 40.94340 -2.59589 17815 ft 391 kts 178°
2026-05-08 04:11 40.91631 -2.59351 17211 ft 389 kts 178°
2026-05-08 04:12 40.88943 -2.59113 16635 ft 386 kts 178°
2026-05-08 04:12 40.86268 -2.58965 16157 ft 379 kts 184°
2026-05-08 04:12 40.83733 -2.59493 16036 ft 361 kts 198°
2026-05-08 04:12 40.81516 -2.60857 15940 ft 344 kts 214°
2026-05-08 04:13 40.79713 -2.62832 15843 ft 331 kts 224°
2026-05-08 04:13 40.78115 -2.64947 15686 ft 319 kts 225°
2026-05-08 04:13 40.76589 -2.67015 15562 ft 309 kts 225°
2026-05-08 04:13 40.75115 -2.69007 15418 ft 299 kts 225°
2026-05-08 04:14 40.73680 -2.70935 15288 ft 289 kts 225°
2026-05-08 04:14 40.72292 -2.72795 15158 ft 280 kts 225°
2026-05-08 04:14 40.70945 -2.74593 15031 ft 271 kts 225°
2026-05-08 04:14 40.69642 -2.76332 14892 ft 262 kts 225°
2026-05-08 04:15 40.68378 -2.78015 14555 ft 262 kts 225°
2026-05-08 04:15 40.67096 -2.79722 14227 ft 262 kts 225°
2026-05-08 04:15 40.65790 -2.81384 13926 ft 260 kts 219°
2026-05-08 04:15 40.64823 -2.82315 13760 ft 258 kts 214°
2026-05-08 04:16 40.62795 -2.83989 13435 ft 257 kts 212°
2026-05-08 04:16 40.61785 -2.84798 13270 ft 256 kts 212°
2026-05-08 04:16 40.60260 -2.86019 13030 ft 256 kts 212°
2026-05-08 04:16 40.58742 -2.87237 12791 ft 256 kts 212°
2026-05-08 04:17 40.57223 -2.88457 12552 ft 255 kts 212°
2026-05-08 04:17 40.55216 -2.90070 12240 ft 254 kts 211°
2026-05-08 04:17 40.54198 -2.90889 12078 ft 254 kts 211°
2026-05-08 04:17 40.52690 -2.92101 11822 ft 253 kts 211°
2026-05-08 04:18 40.51186 -2.93310 11612 ft 253 kts 211°
2026-05-08 04:18 40.49704 -2.94501 11373 ft 252 kts 211°
2026-05-08 04:18 40.48206 -2.95703 11142 ft 252 kts 211°
2026-05-08 04:18 40.46715 -2.96900 10911 ft 251 kts 211°
2026-05-08 04:19 40.45228 -2.98093 10668 ft 250 kts 211°
2026-05-08 04:19 40.43743 -2.99283 10438 ft 250 kts 211°
2026-05-08 04:19 40.42259 -3.00473 10212 ft 249 kts 211°
2026-05-08 04:19 40.40779 -3.01658 9965 ft 249 kts 210°
2026-05-08 04:20 40.39302 -3.02840 9720 ft 248 kts 210°
2026-05-08 04:20 40.37831 -3.04017 9484 ft 247 kts 210°
2026-05-08 04:20 40.36364 -3.05190 9254 ft 246 kts 210°
2026-05-08 04:20 40.34901 -3.06360 9026 ft 246 kts 210°
2026-05-08 04:21 40.33442 -3.07525 8800 ft 245 kts 210°
2026-05-08 04:21 40.31992 -3.08683 8572 ft 244 kts 210°
2026-05-08 04:21 40.30548 -3.09835 8349 ft 243 kts 210°
2026-05-08 04:21 40.29105 -3.10986 8109 ft 242 kts 210°
2026-05-08 04:22 40.27697 -3.12185 7951 ft 241 kts 217°
2026-05-08 04:22 40.26626 -3.13835 7655 ft 244 kts 243°
2026-05-08 04:22 40.26275 -3.15988 7388 ft 245 kts 271°
2026-05-08 04:22 40.26537 -3.18193 7159 ft 246 kts 280°
2026-05-08 04:23 40.26929 -3.20372 6919 ft 245 kts 281°
2026-05-08 04:23 40.27330 -3.22533 6670 ft 244 kts 281°
2026-05-08 04:23 40.27720 -3.24694 6404 ft 245 kts 281°
2026-05-08 04:23 40.28104 -3.26870 6135 ft 245 kts 280°
2026-05-08 04:24 40.28484 -3.29037 5893 ft 244 kts 280°
2026-05-08 04:24 40.28862 -3.31207 5641 ft 244 kts 280°
2026-05-08 04:24 40.29237 -3.33382 5387 ft 244 kts 279°
2026-05-08 04:24 40.29604 -3.35507 5201 ft 237 kts 279°
2026-05-08 04:25 40.29972 -3.37580 4996 ft 230 kts 282°
2026-05-08 04:25 40.30676 -3.39446 4696 ft 232 kts 309°
2026-05-08 04:25 40.31865 -3.40861 4431 ft 230 kts 321°
2026-05-08 04:25 40.33135 -3.42131 4213 ft 229 kts 322°
2026-05-08 04:26 40.34401 -3.43378 3990 ft 227 kts 322°
2026-05-08 04:26 40.35653 -3.44622 3936 ft 223 kts 322°
2026-05-08 04:26 40.36884 -3.45854 3940 ft 229 kts 322°
2026-05-08 04:26 40.38278 -3.47258 3979 ft 273 kts 322°
2026-05-08 04:27 40.39731 -3.48723 3902 ft 247 kts 322°
2026-05-08 04:27 40.41016 -3.50020 3904 ft 224 kts 322°
2026-05-08 04:27 40.42243 -3.51260 3929 ft 222 kts 322°
2026-05-08 04:27 40.43410 -3.52578 3925 ft 221 kts 307°
2026-05-08 04:28 40.43978 -3.54400 3924 ft 215 kts 272°
2026-05-08 04:28 40.43713 -3.56290 3941 ft 210 kts 244°
2026-05-08 04:28 40.43072 -3.58007 3934 ft 210 kts 239°
2026-05-08 04:28 40.42198 -3.59509 3915 ft 206 kts 212°
2026-05-08 04:29 40.40907 -3.60121 3932 ft 199 kts 181°
2026-05-08 04:29 40.39576 -3.59786 3931 ft 195 kts 149°
2026-05-08 04:29 40.38620 -3.58552 3938 ft 194 kts 127°
2026-05-08 04:29 40.37739 -3.57210 3932 ft 195 kts 137°
2026-05-08 04:30 40.36713 -3.56046 3930 ft 195 kts 140°
2026-05-08 04:30 40.35670 -3.54914 3930 ft 195 kts 140°
2026-05-08 04:30 40.34622 -3.53782 3931 ft 195 kts 140°
2026-05-08 04:30 40.33502 -3.52575 3929 ft 195 kts 140°
2026-05-08 04:31 40.32458 -3.51444 3929 ft 195 kts 140°
2026-05-08 04:31 40.31415 -3.50310 3927 ft 195 kts 140°
2026-05-08 04:31 40.30371 -3.49176 3924 ft 194 kts 140°
2026-05-08 04:31 40.29326 -3.48047 3924 ft 195 kts 140°
2026-05-08 04:32 40.28289 -3.46905 3926 ft 195 kts 135°
2026-05-08 04:32 40.27670 -3.45352 3925 ft 197 kts 101°
2026-05-08 04:32 40.27821 -3.43571 3937 ft 203 kts 71°
2026-05-08 04:32 40.28525 -3.41959 3927 ft 207 kts 55°
2026-05-08 04:33 40.29713 -3.40878 3931 ft 215 kts 20°
2026-05-08 04:33 40.31199 -3.40654 3935 ft 219 kts 356°
2026-05-08 04:33 40.32615 -3.41358 3940 ft 219 kts 326°
2026-05-08 04:33 40.33782 -3.42592 3940 ft 219 kts 319°
2026-05-08 04:34 40.34973 -3.43893 3930 ft 220 kts 321°
2026-05-08 04:34 40.36171 -3.45108 3930 ft 221 kts 322°
2026-05-08 04:34 40.37390 -3.46338 3931 ft 221 kts 322°
2026-05-08 04:34 40.38526 -3.47487 3923 ft 219 kts 322°
2026-05-08 04:35 40.39692 -3.48673 3680 ft 206 kts 322°
2026-05-08 04:35 40.40802 -3.49802 3406 ft 197 kts 323°
2026-05-08 04:35 40.41865 -3.50880 3122 ft 189 kts 323°
2026-05-08 04:35 40.42878 -3.51909 2845 ft 179 kts 324°
2026-05-08 04:36 40.43830 -3.52875 2586 ft 167 kts 323°
2026-05-08 04:36 40.44733 -3.53794 2381 ft 163 kts 323°
2026-05-08 04:36 40.45632 -3.54707 2156 ft 162 kts 322°
2026-05-08 04:36 40.46512 -3.55602 1964 ft 162 kts 323°
2026-05-08 04:37 40.47339 -3.56628 2410 ft 159 kts 315°
2026-05-08 04:37 40.47953 -3.57414 3886 ft 94 kts 320°
2026-05-08 04:37 40.48539 -3.58086 2505 ft 168 kts 321°